Location: Buckeye Ditch
(40.9104°N, 122.9517°W)
Time: 14:18:34
(UTC+00:00)

Explorer 7 - Visible Passes

Search period start: 18 May 2025 00:00
Search period end: 28 May 2025 00:00
Orbit: 446 x 574 km, 50.3° (Epoch: 17 May)

Date Brightness Start Highest point End Pass type
(mag) Time Alt. Az. Time Alt. Az. Time Alt. Az.
18 May 6.7 10:46:29 51° S 10:46:57 55° SE 10:50:44 10° ENE visible
19 May 6.7 10:28:28 60° SE 10:28:28 60° SE 10:32:10 10° ENE visible
19 May 8.1 12:04:07 10° W 12:07:32 31° NNW 12:11:04 10° NE visible
20 May 7.0 10:10:24 54° E 10:10:24 54° E 10:13:35 10° ENE visible
20 May 8.2 11:45:38 10° W 11:48:59 29° NNW 11:52:27 10° NE visible
21 May 7.5 09:52:16 43° ENE 09:52:16 43° ENE 09:54:59 10° ENE visible
21 May 8.3 11:27:07 10° WNW 11:30:25 28° NNW 11:33:49 10° NE visible
22 May 8.0 09:34:04 34° ENE 09:34:04 34° ENE 09:36:22 10° ENE visible
22 May 8.4 11:08:51 11° WNW 11:11:49 27° NNW 11:15:11 10° NE visible
23 May 8.4 09:15:48 28° ENE 09:15:48 28° ENE 09:17:43 10° ENE visible
23 May 8.5 10:50:35 13° WNW 10:53:14 26° NNW 10:56:30 10° NE visible
24 May 8.7 08:57:30 23° NE 08:57:30 23° NE 08:59:02 10° ENE visible
24 May 8.6 10:32:16 14° WNW 10:34:36 25° NNW 10:37:50 10° NE visible
24 May 9.1 12:11:30 10° NW 12:14:27 21° N 12:17:30 10° ENE visible
25 May 8.9 08:39:06 20° NE 08:39:06 20° NE 08:40:21 10° NE visible
25 May 8.7 10:13:53 15° WNW 10:15:58 24° NNW 10:19:08 10° NE visible
25 May 9.1 11:52:52 10° NW 11:55:49 21° N 11:58:51 10° ENE visible
26 May 9.0 08:20:40 17° NE 08:20:40 17° NE 08:21:39 10° NE visible
26 May 8.7 09:55:26 16° NW 09:57:19 23° NNW 10:00:25 10° NE visible
26 May 9.1 11:34:12 10° NW 11:37:09 21° N 11:40:11 10° ENE visible
27 May 9.1 08:02:07 16° NE 08:02:07 16° NE 08:02:55 10° NE visible
27 May 8.8 09:36:53 16° NW 09:38:39 22° NNW 09:41:41 10° NE visible
27 May 9.2 11:15:32 10° NW 11:18:29 21° N 11:21:31 10° ENE visible
